Regional Weather Roundup
Issued by NWS

Home | Current Version | Previous Version | Text Only | Print | Product List | Glossary On
Versions: 1 2 3 4 5 6 7 8 9 10 11 12 13 14 15 16 17 18 19 20 21 22 23 24 25 26 27 28 29 30 31 32 33 34 35 36 37 38 39 40 41 42 43 44 45 46 47 48 49 50
000
ASUS43 KDTX 110310
RWRMI
MICHIGAN HOURLY REGIONAL WEATHER ROUNDUP
NATIONAL WEATHER SERVICE DETROIT/PONTIAC MI
1100 PM EDT THU JUL 10 2014

NOTE: "FAIR" INDICATES FEW OR NO CLOUDS BELOW 12,000 FEET WITH NO
SIGNIFICANT WEATHER AND/OR OBSTRUCTION TO VISIBILITY.

MIZ047>049-052>055-059>063-066>070-074>076-081>083-110400-
SOUTHEAST LOWER MICHIGAN

CITY           SKY/WX    TMP DP  RH WIND       PRES   REMARKS
ADRIAN         CLEAR     64  57  78 N3        30.18R
ALMA           CLEAR     60  56  87 CALM      30.19R
ANN ARBOR      PTCLDY    65  55  70 NE3       30.18R
BAD AXE        CLEAR     55  51  86 CALM      30.21R
CARO           CLEAR     60  56  88 CALM      30.20R
DETROIT CITY   MOCLDY    69  59  70 E7        30.19R
DETROIT        PTCLDY    68  58  70 E3        30.19R
FLINT          CLEAR     65  55  70 E8        30.19R
GROSSE ILE     CLEAR     68  59  73 E5        30.17S
HILLSDALE      CLEAR     59  58  94 CALM      30.19R
HOWELL         CLEAR     61  55  80 CALM      30.19R

CITY           SKY/WX    TMP DP  RH WIND       PRES   REMARKS
JACKSON        CLEAR     63  56  78 CALM      30.19R
LAMBERTVILLE   CLEAR     63  59  88 CALM      30.18S
LANSING        CLEAR     61  53  75 CALM      30.19R
LAPEER         FAIR      61  54  78 CALM      30.21R
MASON          CLEAR     60  56  84 CALM      30.19R
MONROE         CLEAR     63  57  82 CALM      30.16S
MT. CLEMENS    CLEAR     61  55  80 N5        30.19R
PONTIAC        PTCLDY    65  57  75 E9        30.19R
PORT HOPE        N/A     55  51  86 SE3       30.19S
PORT HURON     PTCLDY    57  55  94 CALM      30.21S
TRI CITIES     CLEAR     63  52  67 SE6       30.19R
TROY           CLEAR     66  57  72 NE8       30.20S
SAGINAW HB     CLEAR     63  52  67 CALM      30.19R
$$
MIZ043>046-050>051-056>058-064>065-071>073-077>080-110400-
SOUTHWEST LOWER MICHIGAN

CITY           SKY/WX    TMP DP  RH WIND       PRES   REMARKS
BATTLE CREEK   CLEAR     68  54  60 CALM      30.19R
BENTON HARBOR  CLEAR     57  54  89 CALM      30.18R
BIG RAPIDS     CLEAR     58  57  96 CALM      30.18R
COLDWATER      CLEAR     61  58  90 CALM      30.18R
FREMONT        FAIR      59  54  83 CALM      30.18R
HOLLAND        CLEAR     60  55  83 CALM      30.19R
GRAND RAPIDS   CLEAR     65  55  70 CALM      30.19R
IONIA          FAIR      61  55  81 CALM      30.17S
KALAMAZOO      CLEAR     62  55  77 CALM      30.19R
LUDINGTON      CLEAR     55  51  88 CALM      30.18R
MARSHALL       CLEAR     59  55  88 CALM      30.18R
MOUNT PLEASANT CLEAR     58  55  91 CALM      30.18R
MUSKEGON       PTCLDY    62  53  72 CALM      30.18R
SOUTH HAVEN    CLEAR     57  56  95 CALM      30.19R
$$
MIZ016>042-110400-
NORTHERN LOWER MICHIGAN

CITY           SKY/WX    TMP DP  RH WIND       PRES   REMARKS
ALPENA         CLEAR     54  52  93 CALM      30.19R
BEAVER ISLAND  CLEAR     50  49  95 CALM      30.17R
BELLAIRE       CLEAR     53  49  89 CALM      30.17R
CADILLAC       CLEAR     53  51  95 CALM      30.19R
CHARLEVOIX     CLEAR     57  50  79 CALM      30.19S
FRANKFORT      CLEAR     55  49  80 CALM      30.17R
GAYLORD        CLEAR     60  50  69 NE3       30.18R
GRAYLING       CLEAR     55  51  88 CALM      30.19R
HARBOR SPRINGS CLEAR     56  51  84 NE5       30.16S
HOUGHTON LAKE  CLEAR     55  51  86 CALM      30.18R
MANISTEE       CLEAR     54  48  82 CALM      30.18R
OSCODA         CLEAR     60  54  80 CALM      30.19S
PELLSTON       CLEAR     51  49  92 CALM      30.18R
ROGERS CITY    CLEAR     58  49  72 S7        30.19S
TRAVERSE CITY  CLEAR     58  51  78 CALM      30.16R
$$
MIZ007>008-015-110400-
EASTERN UPPER MICHIGAN

CITY           SKY/WX    TMP DP  RH WIND       PRES   REMARKS
KINROSS        CLEAR     55  48  76 S6        30.17R
MACKINAC ISLAN CLEAR     55  49  81 SE7       30.17S
NEWBERRY       CLEAR     53  48  84 SW9       30.16R
S. S. MARIE    CLEAR     57  47  69 S7        30.16R
MUNISING         N/A     62  48  60 S8        30.13R
$$
MIZ004>006-011>014-085-110400-
CENTRAL UPPER MICHIGAN

CITY           SKY/WX    TMP DP  RH WIND       PRES   REMARKS
MANISTIQUE     CLEAR     54  51  90 S3        30.15R
ESCANABA       CLEAR     63  52  67 S6        30.14S
MENOMINEE      CLEAR     63  52  67 S7        30.13R
SAWYER-GWINN   CLEAR     60  53  76 S10       30.13S
$$
MIZ001>003-009>011-084-110400-
WESTERN UPPER MICHIGAN

CITY           SKY/WX    TMP DP  RH WIND       PRES   REMARKS
IRON MOUNTAIN  CLEAR     62  55  77 SE7       30.11R
HOUGHTON       PTCLDY    57  48  72 E6        30.05S
COPPER HARBOR    N/A     60  51  72 W9        30.04S
$$

ABBREVIATIONS USED IN REMARKS
   TC - TEMPERATURE IN CELSIUS
  WCI - WIND CHILL INDEX
   HX - HEAT INDEX
  VSB - VISIBILITY




USA.gov is the U.S. government's official web portal to all federal, state and local government web resources and services.